Theta_e
347 353 345 342 339 345 346 345 345 344 343 337 334 333 335 336 337 341 342 345 345 344 343 345 345 344 343 343 343 344 347 346 346 347 347 346 346 346 346 346 347 349 346
350 352 347 341 338 342 345 345 343 343 340 340 335 337 341 338 338 340 341 341 343 340 340 344 348 347 346 347 345 344 346 345 346 346 345 346 346 346 347 346 346 347 346
351 353 350 339 336 337 342 344 344 343 342 340 340 342 342 339 339 339 339 338 329 327 331 339 346 347 347 345 344 343 344 345 345 343 345 346 347 346 348 347 345 344 344
351 353 349 345 335 333 335 340 343 343 343 342 342 341 339 338 338 338 336 333 336 337 341 344 344 346 346 344 344 344 343 344 342 341 342 344 345 345 344 344 344 341 341
351 352 350 349 335 331 330 333 335 339 340 340 339 337 336 335 334 333 334 343 346 344 341 342 344 344 345 339 340 341 342 342 342 340 339 341 343 344 343 343 344 341 344
351 351 350 349 338 331 328 328 329 333 335 335 333 329 327 329 331 336 340 344 344 345 343 333 338 337 334 333 334 333 333 339 340 339 339 343 344 343 342 343 343 340 341
348 349 351 347 336 331 328 329 329 329 331 332 330 327 329 331 336 343 345 344 339 338 341 333 335 335 336 339 340 340 336 329 336 337 339 341 340 340 341 344 342 341 339
346 347 351 348 337 331 327 330 331 331 331 331 330 333 333 333 337 339 343 344 338 334 337 335 336 337 338 338 340 343 343 337 334 335 337 338 333 332 339 341 340 340 339
345 346 349 351 346 334 328 329 331 333 333 332 334 335 333 334 336 339 341 342 340 335 335 336 336 336 337 340 342 342 343 344 340 333 336 337 329 327 330 336 337 338 338
345 346 352 349 347 344 342 330 331 333 333 334 336 336 337 335 337 340 341 341 339 339 335 336 337 338 338 339 340 341 344 343 342 335 336 337 330 332 330 327 333 334 334
348 348 347 347 347 345 341 341 335 334 335 335 337 337 341 344 343 343 344 341 341 341 339 336 337 337 338 339 340 341 343 345 342 336 335 329 325 331 330 325 324 327 329
346 350 349 348 348 346 343 343 342 344 343 343 344 345 344 344 344 343 342 340 340 339 339 337 337 337 338 344 344 342 348 344 340 338 334 326 325 326 326 326 325 325 325
346 347 351 350 349 345 342 343 343 343 345 345 346 346 345 343 342 340 341 341 342 339 342 341 342 343 343 343 344 345 347 345 342 341 335 325 325 332 327 328 328 329 328
343 347 349 349 347 346 344 343 343 343 344 344 345 345 344 342 341 340 338 339 340 341 342 342 342 343 343 343 342 344 344 346 344 343 337 327 326 329 339 329 331 331 331
342 344 347 346 345 347 346 344 343 343 343 344 345 344 342 341 340 339 338 337 337 339 340 340 340 340 341 342 342 344 343 345 345 344 341 330 328 330 332 338 331 332 333
342 343 346 345 346 347 345 345 343 343 342 342 345 344 341 341 338 338 337 336 337 338 340 341 339 339 338 340 342 343 344 344 345 344 343 339 331 332 335 337 338 336 335
341 343 345 344 349 347 348 345 343 343 342 340 343 344 340 336 335 337 338 338 338 340 341 342 341 340 339 338 339 342 344 344 344 342 342 342 343 334 335 339 342 342 340
338 341 343 345 347 346 346 345 343 344 343 342 340 342 343 342 337 336 338 338 340 341 342 343 343 342 343 341 338 340 342 344 343 342 342 342 343 343 341 337 338 340 342
342 340 342 343 344 345 346 344 343 343 343 343 342 339 339 341 342 340 340 340 338 339 340 341 341 342 343 343 341 341 343 344 344 342 341 340 340 343 345 345 339 339 342
343 342 341 342 342 344 344 343 343 342 342 342 341 340 336 336 338 340 341 342 342 341 341 341 340 342 341 341 341 341 342 342 343 343 342 341 341 342 343 345 340 342 342
341 342 342 342 341 340 340 340 340 339 338 339 333 334 332 335 338 339 339 342 343 342 343 343 342 342 342 341 341 342 342 340 339 341 343 342 342 342 340 343 341 341 345
337 338 339 341 340 339 340 340 341 341 341 342 338 337 337 338 339 340 341 341 339 337 338 338 337 337 336 336 334 336 341 339 339 340 341 343 343 343 340 340 343 345 344
331 332 333 335 336 337 339 340 340 339 338 338 337 337 337 338 338 338 339 339 339 335 334 337 337 336 335 333 335 333 336 338 334 333 336 338 341 341 340 341 342 343 343
328 328 333 334 335 336 337 340 342 342 340 337 336 335 335 336 336 335 336 336 337 336 334 334 334 334 334 334 332 334 332 331 335 335 334 333 332 334 339 339 339 340 340
328 328 328 332 335 336 339 339 339 340 337 335 334 334 333 333 332 332 332 331 331 331 331 331 331 332 332 332 332 332 332 331 331 334 337 335 332 330 330 335 338 338 338
325 325 326 327 331 334 336 337 338 337 334 332 329 328 326 326 326 327 327 328 328 328 328 328 328 328 328 329 329 329 330 331 332 333 334 333 334 334 333 332 333 334 333
Wind_Speed
22 24 25 25 26 26 23 22 25 28 28 25 25 24 21 19 18 16 15 13 11 13 15 15 16 14 14 15 14 15 16 17 17 18 18 17 18 18 17 19 17 18 19
30 26 25 27 26 27 25 25 27 28 27 25 26 23 20 18 18 16 14 12 10 11 13 14 14 13 13 15 15 15 15 15 16 16 16 16 15 15 16 17 18 17 18
32 27 25 28 27 26 27 26 26 27 27 26 25 21 18 17 17 15 13 12 11 11 12 12 13 13 13 14 14 16 15 14 14 15 17 12 12 14 15 15 16 16 17
32 27 24 26 27 26 26 27 26 25 25 25 22 20 19 17 15 13 12 12 12 13 13 14 14 14 15 14 14 14 15 14 14 15 11 12 11 13 13 14 13 15 15
29 26 25 25 26 26 25 25 25 24 23 22 21 19 18 15 14 13 13 13 12 13 14 14 15 16 15 14 15 14 12 13 13 10 10 11 11 10 12 12 12 13 14
27 26 26 24 25 25 24 23 22 22 22 21 19 18 17 16 16 15 14 14 14 12 14 15 16 17 16 16 13 12 10 10 11 8 8 11 11 11 11 13 12 12 12
25 24 26 25 25 23 22 22 21 22 21 20 18 17 17 18 17 15 15 13 12 13 13 16 17 17 15 12 9 8 7 8 8 7 8 9 9 10 9 10 11 11 13
24 23 23 24 25 23 22 21 21 20 20 20 18 18 17 17 17 17 15 13 11 13 14 15 16 15 11 7 5 4 4 5 6 7 8 7 9 11 11 9 10 10 11
22 22 23 22 22 23 22 21 20 20 19 18 18 17 17 17 16 15 13 11 12 12 14 15 14 11 8 6 4 3 4 4 5 6 7 7 9 10 11 10 10 10 10
21 21 21 22 21 20 19 21 21 20 19 17 17 17 17 16 16 13 12 12 11 12 13 13 12 10 8 7 5 5 5 6 7 7 7 7 10 10 10 11 10 10 10
20 21 21 22 22 20 19 19 20 19 18 17 16 16 15 11 11 11 12 13 11 10 12 11 10 9 7 7 6 5 6 6 9 8 8 11 11 11 10 11 11 10 10
23 21 22 23 22 20 18 17 16 16 16 15 15 14 13 12 11 10 10 12 11 10 9 9 8 8 7 6 5 6 6 8 9 8 9 13 13 12 12 11 11 11 10
23 23 22 23 22 21 19 18 16 15 15 15 15 15 13 12 10 10 9 9 9 10 8 7 7 7 7 6 6 7 7 8 9 8 10 13 14 13 13 12 11 11 11
22 21 22 21 22 21 18 18 16 16 15 14 15 15 13 12 11 10 10 10 10 9 8 8 8 8 8 8 8 9 9 10 11 10 10 15 15 14 14 14 13 13 12
22 21 20 21 23 20 17 16 16 15 15 15 14 15 14 13 12 10 10 9 9 9 9 9 9 10 10 10 10 11 11 11 12 12 11 16 17 17 16 16 15 15 14
19 19 19 24 23 20 18 16 15 15 13 15 14 14 16 14 13 12 11 11 10 10 9 10 10 10 11 11 12 12 13 12 13 14 12 14 20 20 19 18 18 18 17
19 19 18 21 20 20 18 17 15 14 13 12 14 14 16 16 16 13 12 12 11 11 11 11 12 14 15 14 15 14 13 15 15 18 16 14 16 23 23 22 20 20 18
17 20 18 18 20 21 18 18 15 15 14 12 12 12 15 15 16 16 14 13 11 11 10 10 11 12 13 13 15 16 15 16 16 17 18 17 17 18 23 25 24 23 20
18 18 20 20 20 21 18 15 14 13 14 12 12 13 15 16 15 16 15 13 14 14 13 13 13 13 14 14 14 14 15 16 17 16 19 19 19 20 21 22 27 26 23
15 18 20 19 18 18 15 13 13 12 12 12 12 10 14 16 17 18 17 16 14 13 14 15 17 13 12 10 11 13 13 15 16 18 19 20 21 23 25 26 26 25 27
11 14 17 18 17 17 16 14 12 14 12 10 13 12 12 15 15 17 17 13 11 11 13 13 12 7 3 4 7 10 11 12 15 17 17 19 21 22 25 24 25 27 21
9 10 12 16 17 18 16 15 9 11 11 9 9 11 18 16 11 10 13 17 13 13 16 15 10 4 1 3 6 3 4 6 6 11 15 18 21 20 25 27 24 24 23
7 8 12 15 18 19 18 14 12 10 11 12 11 11 10 9 7 8 7 10 17 23 19 15 19 24 18 14 17 11 1 4 10 18 13 17 23 24 24 24 26 25 25
7 7 10 14 15 15 17 17 16 14 9 9 12 12 10 8 8 9 7 9 10 9 10 14 16 16 16 18 15 27 27 17 6 8 16 22 26 22 29 31 30 34 32
8 9 10 13 13 13 15 18 19 16 15 13 14 11 8 7 6 5 6 6 6 5 7 9 10 12 15 15 17 10 15 17 25 17 11 11 19 28 30 30 33 36 32
7 8 10 13 14 13 15 16 16 17 18 16 13 11 8 6 5 4 2 3 3 4 6 6 7 8 11 15 17 18 16 10 15 15 12 19 21 17 24 24 20 24 26
Wind_Direction
167 161 166 160 157 155 153 153 155 158 157 153 151 151 148 143 139 136 132 130 124 118 115 113 115 117 112 107 107 108 110 112 111 107 108 111 111 114 114 106 100 105 108
158 159 162 160 159 156 154 152 156 156 156 154 153 151 147 146 144 142 137 133 130 126 125 121 118 115 111 108 110 110 112 113 114 114 108 107 109 109 107 112 114 113 112
157 158 158 160 160 157 156 154 153 156 157 155 153 150 149 149 147 145 140 138 133 130 132 129 123 120 115 112 112 120 124 116 113 114 109 112 112 110 108 109 111 114 114
156 158 159 160 161 159 156 156 156 154 154 153 154 152 150 152 150 145 143 135 127 125 122 122 121 121 119 120 113 113 117 117 116 102 108 114 116 117 116 115 116 117 115
157 159 162 160 162 159 158 156 157 157 158 155 153 152 153 156 153 146 141 133 127 126 124 125 125 126 125 122 120 121 124 125 121 99 112 117 118 127 128 125 122 120 116
159 160 162 163 166 160 157 157 158 158 156 156 154 154 155 151 147 144 140 136 137 133 128 130 130 128 128 118 114 114 123 133 116 119 115 124 116 131 128 131 131 131 128
158 161 163 169 169 163 158 156 158 159 159 158 156 155 153 150 148 143 137 135 136 137 134 136 135 133 132 124 118 109 117 121 131 131 131 130 136 141 138 130 135 133 131
158 162 164 173 172 167 162 160 159 158 159 158 155 155 154 151 151 147 143 141 136 140 140 142 140 138 139 135 131 130 133 137 131 147 147 143 155 152 150 149 141 137 136
161 164 167 168 170 171 166 164 163 161 161 158 156 156 155 156 156 152 150 151 145 145 146 148 150 159 163 168 180 193 218 200 164 161 157 152 167 158 155 155 157 150 146
163 170 168 171 170 167 167 168 167 165 165 163 162 162 161 163 164 163 161 160 154 154 159 164 169 178 187 194 215 226 215 220 185 172 170 177 176 168 165 162 168 167 163
168 173 176 173 176 172 170 171 171 170 171 170 168 170 168 166 172 176 173 170 164 167 167 182 188 195 210 224 228 228 222 193 184 186 186 197 178 180 177 172 170 177 175
175 176 177 179 178 175 171 170 168 171 172 173 171 172 174 177 178 177 178 179 178 178 182 191 207 213 221 230 234 234 222 201 192 200 195 200 189 187 185 184 178 177 180
177 179 181 180 179 178 177 174 174 176 180 180 178 178 181 180 184 184 186 186 187 193 192 209 224 228 239 243 244 232 230 213 212 209 218 204 203 199 194 193 192 188 188
181 185 184 182 182 183 183 179 180 180 183 185 186 186 185 185 191 192 193 195 194 202 206 214 227 234 238 243 246 247 242 230 224 220 222 216 213 209 211 204 204 205 201
182 187 189 187 186 188 185 185 186 187 189 191 192 194 193 195 197 201 205 205 208 210 219 225 234 244 250 248 245 247 249 245 238 229 224 223 221 221 217 218 214 214 216
184 187 189 194 193 189 191 191 194 196 199 200 202 202 204 206 207 211 218 221 224 224 228 234 238 244 248 250 251 245 244 242 240 237 234 228 229 227 227 225 224 221 219
190 189 193 193 196 193 196 199 200 207 210 209 213 215 215 218 222 221 226 232 236 237 239 245 251 252 253 251 251 249 246 241 239 239 234 232 235 230 231 232 231 230 229
190 195 194 194 200 199 200 204 209 211 215 219 223 228 229 233 233 236 240 241 242 247 256 260 256 260 260 251 249 248 245 244 241 239 240 235 235 233 236 233 236 235 231
199 195 197 199 204 202 205 209 214 216 218 225 232 239 244 244 247 248 251 254 253 256 261 265 269 262 262 266 264 255 252 249 248 241 240 240 238 238 240 242 237 237 238
198 204 205 200 205 201 199 205 217 221 225 230 235 245 258 259 254 253 255 258 262 260 264 265 266 268 265 277 281 267 262 263 261 252 244 241 242 245 245 245 241 240 241
189 203 202 202 203 197 196 198 216 221 222 227 237 248 272 278 265 256 258 263 262 272 273 269 264 261 283 297 289 285 275 263 262 259 254 245 245 242 237 235 238 239 240
166 183 189 199 202 199 196 196 206 215 233 236 243 247 264 267 261 260 257 255 264 291 288 275 249 257 215 322 62 348 333 327 310 277 263 257 253 245 241 240 237 230 231
123 159 173 186 194 195 198 192 197 203 222 223 224 230 212 221 240 264 276 271 260 254 261 246 240 226 220 217 242 220 262 271 320 286 290 264 256 253 254 243 233 230 231
116 129 165 177 179 188 194 194 201 213 187 197 190 196 206 224 244 254 250 254 259 261 247 236 235 242 233 225 223 232 233 239 229 267 255 258 260 266 264 264 259 241 232
131 129 133 148 161 163 174 188 189 185 192 175 174 187 202 204 207 205 211 211 204 218 242 254 255 259 262 253 250 216 219 225 239 250 271 254 257 254 252 269 255 252 244
141 140 134 137 140 155 162 165 176 178 170 171 172 170 168 163 152 155 166 209 247 256 264 264 262 267 270 271 271 270 235 226 229 236 246 258 259 250 240 236 247 252 256